Theta_e
279 279 279 279 279 279 280 280 281 281 281 281 281 281 280 280 278 277 279 282 284 288 292 291 293 296 297 296 298 298 299 299 300 304 306 308 311 308 308 311 313 313 314 315 316 317 317 317 318 318 320 321 323 325 325 324 323 324 324 325 326 327 327 327 327 326 325 326 326 326 326 326 327 327
279 279 278 279 278 279 279 280 280 280 279 280 280 280 280 281 279 279 278 280 285 286 291 292 292 295 297 298 298 300 301 299 301 304 306 308 309 307 308 310 312 313 313 315 316 316 317 316 316 317 318 320 322 325 325 323 323 323 324 326 327 327 327 326 326 324 323 325 326 325 326 326 327 326
278 278 277 278 277 278 278 278 278 278 279 279 279 280 281 280 280 280 280 279 283 287 287 290 293 293 294 296 296 298 299 301 303 306 305 306 303 301 305 304 309 311 312 314 316 315 314 316 316 316 316 320 321 322 322 321 321 322 323 326 327 326 326 325 324 324 323 324 326 325 326 327 327 328
277 277 277 277 277 277 278 277 278 278 279 279 279 280 280 280 281 281 281 280 280 286 286 289 291 293 293 295 295 299 300 299 296 301 300 301 300 305 310 306 306 308 310 313 314 315 314 315 316 316 316 318 320 321 320 320 320 320 322 324 326 325 323 323 322 322 322 322 324 324 324 325 326 326
277 276 276 276 276 277 276 276 276 277 278 278 279 279 279 278 280 280 279 279 279 283 286 288 289 292 293 293 295 294 295 296 298 298 300 302 303 304 306 309 304 306 308 310 313 314 313 315 315 315 316 317 319 319 319 318 318 319 321 322 323 324 324 324 323 321 320 322 323 323 323 324 325 325
275 276 275 275 275 275 275 275 274 275 275 276 277 277 277 277 278 279 278 277 277 277 282 285 288 290 294 291 295 294 295 295 296 298 299 303 304 304 304 304 306 305 306 308 311 313 313 314 316 315 315 316 318 318 318 317 317 318 319 320 319 320 321 322 322 321 319 322 323 323 323 324 324 324
273 273 273 273 273 274 273 273 273 274 274 275 275 276 277 276 277 277 277 276 274 275 278 281 283 285 289 292 293 295 296 296 299 299 300 302 304 304 304 304 306 305 306 308 310 312 313 314 315 315 315 314 316 317 317 316 316 317 318 318 318 317 317 319 320 319 319 321 324 323 322 323 324 323
271 271 270 270 271 272 271 272 272 272 273 274 275 275 276 275 275 276 276 276 275 275 276 279 280 284 286 289 293 294 296 297 298 300 301 302 301 303 303 304 305 306 307 307 308 310 311 312 314 315 315 314 315 315 315 315 315 315 315 316 316 316 316 316 317 316 316 320 322 323 323 323 323 322
269 269 269 269 270 271 270 270 271 272 272 273 274 274 274 274 275 275 275 275 276 277 277 279 282 284 287 290 291 293 293 294 297 299 300 300 301 301 302 303 304 302 304 304 305 307 309 311 313 315 315 314 315 315 315 314 314 313 314 314 314 315 315 315 315 314 314 316 318 320 322 323 322 321
268 268 268 269 269 269 269 269 270 271 271 272 273 274 274 274 274 274 274 275 275 275 276 278 280 285 286 288 290 294 295 294 293 296 298 299 300 300 301 303 304 305 306 307 309 305 307 309 310 313 314 314 314 315 314 314 313 311 311 312 312 313 314 314 314 314 314 314 316 317 319 321 321 320
269 269 269 269 270 270 270 270 270 271 271 272 272 273 273 274 273 273 273 273 274 276 278 280 282 284 286 289 289 294 296 296 295 294 294 296 299 299 299 299 302 305 306 306 305 308 309 310 312 310 312 313 313 313 313 313 312 309 310 311 312 312 313 313 313 313 314 313 314 314 315 316 319 320
269 269 269 270 270 271 271 271 271 271 271 272 272 273 273 273 273 273 273 274 274 275 276 278 280 284 286 289 291 294 294 296 294 296 295 294 296 297 298 300 301 304 305 307 310 307 307 309 310 309 310 311 312 311 311 310 309 307 310 311 311 311 312 313 313 312 312 312 313 313 313 314 315 318
270 270 270 270 271 271 273 275 275 275 275 272 271 273 273 273 273 273 273 273 274 275 276 277 280 282 285 288 289 290 290 292 293 294 295 293 295 296 295 296 299 300 303 306 309 311 311 311 314 315 316 316 312 311 309 309 305 307 310 311 311 311 311 312 312 311 311 311 312 312 313 312 313 314
270 271 271 272 274 274 275 275 276 277 277 277 275 274 274 274 273 273 272 272 273 275 275 277 279 280 282 286 288 289 293 293 294 293 294 292 294 294 294 294 295 300 303 305 307 310 313 313 314 315 315 317 312 316 314 315 312 308 310 311 311 311 311 311 311 311 311 311 311 312 312 311 311 312
270 271 271 272 273 274 275 274 277 277 278 278 278 279 279 279 276 274 273 273 274 274 275 277 278 278 279 283 287 288 291 292 292 292 292 291 290 290 289 289 292 297 305 306 306 307 313 315 313 314 315 317 315 317 316 310 308 308 310 311 311 311 311 311 311 310 310 311 311 311 311 311 311 311
270 271 271 272 273 273 274 274 274 275 277 278 279 279 279 279 280 280 277 275 275 275 275 276 277 279 279 281 286 288 289 290 292 291 290 289 287 286 286 288 288 295 301 301 305 307 311 314 314 314 316 317 317 318 313 309 309 309 310 310 310 310 310 310 310 310 310 310 310 311 311 311 311 311
271 271 271 272 273 273 276 275 275 275 275 277 278 279 279 279 280 280 281 281 278 278 277 276 277 279 280 280 283 288 290 291 289 289 288 288 286 286 286 287 287 288 289 291 299 304 308 312 310 313 316 316 317 316 310 308 309 309 310 310 310 310 310 310 310 310 310 310 311 310 310 310 310 310
271 271 271 271 272 273 274 275 275 275 275 275 275 275 276 276 277 279 280 280 280 280 278 277 276 279 281 281 283 287 290 289 288 287 287 287 286 286 286 287 286 287 288 288 292 299 305 310 312 310 315 316 316 316 311 308 309 309 309 309 309 310 310 309 309 310 310 310 310 310 310 310 309 310
271 272 272 272 272 272 273 274 275 275 276 276 275 275 275 276 276 276 276 276 277 277 278 278 279 280 281 283 284 286 289 291 290 289 287 287 286 286 287 287 287 288 291 292 292 291 304 310 311 311 314 314 314 314 309 308 308 309 309 309 309 309 309 309 309 309 310 310 310 310 310 309 309 309
271 272 272 271 272 272 273 275 278 278 277 276 275 275 275 276 276 276 278 280 280 279 278 279 280 281 284 286 285 286 289 291 291 290 287 286 285 285 285 285 287 287 291 293 294 293 300 309 310 309 312 313 311 311 310 307 308 309 309 309 309 309 309 309 309 309 309 310 310 310 309 309 309 308
271 272 272 272 272 272 272 275 278 279 279 276 276 276 275 276 276 276 278 280 281 282 282 283 284 285 286 287 289 289 290 290 292 289 287 286 287 285 284 284 286 287 290 291 294 297 299 306 309 307 308 309 307 308 308 310 307 308 308 308 309 309 309 309 309 309 309 309 309 310 309 309 308 307
271 272 274 274 272 272 272 276 277 278 277 275 275 276 275 275 275 276 278 278 279 281 282 283 284 284 286 287 289 290 290 291 291 289 285 286 286 284 285 284 285 287 287 288 292 294 298 304 306 305 304 302 306 307 308 308 308 306 307 308 308 308 308 309 309 309 309 309 309 309 309 308 307 310
272 272 273 274 274 273 274 277 278 279 278 276 276 276 276 275 275 277 278 278 277 278 279 280 283 284 286 287 288 288 290 291 291 291 288 287 285 284 284 285 285 285 286 289 293 294 298 300 303 304 302 301 302 305 305 305 308 309 308 309 311 307 307 308 308 309 309 309 309 309 309 308 308 313
272 272 272 273 275 276 277 277 278 279 279 276 276 276 275 275 275 278 278 279 278 279 279 280 282 283 285 287 287 287 289 290 289 290 289 287 286 285 285 285 285 284 286 290 292 293 299 299 300 305 305 300 298 301 304 305 307 307 308 309 310 306 306 306 307 307 308 309 308 308 308 307 310 315
270 270 270 271 274 276 276 277 278 278 279 279 276 276 276 276 278 280 279 279 280 279 279 280 281 283 284 286 287 287 288 289 289 289 289 288 287 286 285 285 285 285 287 289 291 290 297 300 300 301 303 303 302 302 303 305 305 304 306 308 309 309 308 310 308 311 306 307 307 307 307 308 309 314
270 270 270 270 272 275 275 276 277 277 278 279 276 276 279 280 281 279 280 280 280 280 280 280 281 282 283 284 286 287 288 288 288 289 288 288 287 287 287 286 286 286 287 291 293 291 295 300 300 301 301 301 300 302 301 302 304 305 306 309 310 310 307 308 309 311 311 311 309 308 309 307 309 310
269 270 270 270 273 275 275 276 277 277 278 278 276 279 280 280 281 281 279 280 280 280 280 280 281 282 283 284 285 286 287 288 288 288 288 288 288 288 289 290 291 290 292 293 292 292 294 301 300 302 301 301 301 300 300 300 300 303 305 306 307 308 308 309 309 309 310 310 307 305 306 307 308 309
270 269 270 271 275 276 276 277 278 278 278 277 279 280 280 281 281 279 279 280 280 280 280 280 281 281 283 284 285 285 287 287 288 288 289 289 289 289 289 290 290 291 293 294 293 293 294 300 301 302 305 301 301 300 300 302 300 302 302 306 305 308 308 307 309 305 305 308 309 307 307 308 310 311
270 273 275 274 274 274 275 276 277 276 277 278 278 279 280 280 278 278 278 279 280 280 280 281 281 282 284 285 286 287 288 288 288 288 288 288 288 289 289 289 290 290 292 294 294 294 294 299 302 304 304 302 302 302 302 301 301 302 303 302 303 304 305 309 310 309 306 309 308 307 308 309 309 309
274 273 272 272 272 272 272 271 272 273 274 276 277 278 279 278 278 278 279 279 279 279 280 281 282 283 285 286 287 288 288 287 287 287 287 287 287 288 288 288 289 290 292 293 295 296 296 298 304 304 302 302 303 302 303 302 301 303 300 303 304 302 305 308 309 308 305 306 306 306 309 310 309 306
268 267 268 268 271 270 271 272 272 273 274 275 276 277 278 278 279 279 279 280 280 281 281 282 282 284 286 287 287 287 287 287 287 287 287 287 287 287 288 288 289 290 293 293 295 297 298 300 305 305 302 302 301 302 303 303 301 301 302 304 302 300 303 307 307 307 307 307 307 306 307 308 308 302
267 266 268 267 266 266 266 267 267 268 269 270 271 271 272 273 275 277 281 282 281 282 283 284 284 284 285 285 286 287 287 287 287 288 287 287 287 288 288 288 288 291 293 294 296 295 294 299 304 305 305 303 300 299 301 302 302 302 302 302 302 304 303 305 307 306 306 306 306 305 306 307 307 307
266 265 264 264 264 264 264 264 265 266 266 267 269 269 269 270 272 273 276 280 281 282 283 283 283 283 284 285 286 286 286 286 287 288 288 288 287 288 289 288 289 291 292 294 295 296 296 297 299 306 305 304 304 301 301 300 301 303 302 301 302 301 302 305 305 305 302 303 303 304 304 305 306 307
264 263 263 263 263 263 263 263 264 264 265 266 266 267 269 269 270 271 273 274 277 281 283 283 283 284 284 284 285 285 285 286 287 288 287 287 288 287 288 288 290 292 293 294 295 296 297 297 293 294 294 295 297 299 302 302 300 301 302 302 302 301 302 304 303 302 302 304 303 301 301 303 304 306
263 262 262 262 263 263 263 263 263 264 264 265 265 266 267 268 269 270 270 272 273 273 274 278 283 284 284 284 285 285 285 286 286 287 287 287 287 287 288 289 291 293 294 295 295 296 297 296 298 297 298 298 297 294 293 296 302 301 301 301 302 301 301 302 301 300 301 303 303 300 300 301 302 304
262 262 262 262 262 262 262 263 263 264 264 265 265 266 266 267 268 269 269 270 270 270 272 275 278 282 284 285 285 286 286 286 286 286 287 288 288 288 289 290 292 294 295 296 296 297 297 298 299 297 296 296 296 295 297 292 296 302 300 299 300 299 300 300 299 300 301 302 302 302 299 298 300 302
261 261 262 262 262 262 262 263 263 264 264 265 265 266 266 266 268 269 270 270 270 270 272 273 276 279 282 285 285 285 285 285 285 286 287 288 289 289 290 291 292 294 295 296 297 297 297 298 299 298 297 295 294 294 295 294 296 300 303 301 299 299 299 299 299 299 301 302 302 302 302 301 300 301
260 261 261 261 262 262 262 263 263 264 264 265 265 266 266 267 268 268 269 269 269 269 270 271 273 275 277 282 285 285 286 286 287 287 287 288 289 290 291 293 294 295 296 296 297 297 298 299 298 298 298 295 294 294 293 292 296 298 298 302 300 298 298 299 298 299 300 302 302 303 303 302 301 302
260 260 260 260 261 262 262 263 263 263 264 264 265 265 266 266 267 267 268 268 268 269 269 270 270 273 275 278 283 285 285 286 286 287 288 289 290 291 293 294 294 295 296 296 296 297 298 298 298 299 298 297 296 297 296 295 296 299 299 297 300 299 299 300 300 300 300 300 301 301 297 296 298 296
260 260 260 260 261 262 262 263 263 263 264 264 265 265 266 266 266 267 267 268 268 269 269 269 270 271 272 275 278 283 286 286 287 288 289 290 291 292 294 295 295 295 295 295 295 296 297 298 298 300 300 301 301 301 299 296 295 297 298 296 297 300 300 301 300 300 299 301 300 297 295 296 295 295
259 259 260 260 261 261 262 262 263 263 264 264 265 266 266 266 266 266 267 268 268 267 267 267 268 268 269 272 274 279 284 287 288 289 290 290 290 291 292 292 295 295 295 294 295 295 296 299 298 298 298 297 294 296 296 294 293 295 296 296 294 295 297 298 303 301 300 298 297 297 295 295 293 294
259 259 260 260 260 261 262 262 263 263 264 265 265 265 266 266 267 269 268 268 267 267 266 266 267 267 268 270 272 276 283 288 289 290 290 291 291 291 291 293 294 295 295 294 295 296 298 299 295 293 294 296 298 296 294 294 293 295 296 298 295 293 295 295 296 298 302 299 297 296 294 293 294 293
259 259 259 260 260 261 262 263 263 263 264 265 265 265 266 266 267 267 266 266 266 265 265 265 266 266 267 268 270 273 279 287 290 290 290 290 290 290 291 294 294 295 295 296 296 297 295 292 293 295 298 298 297 297 295 294 295 295 295 296 294 295 297 294 294 294 296 296 297 299 299 296 295 294
259 259 259 260 260 261 262 262 263 263 264 265 265 266 266 266 266 266 266 266 265 265 265 265 265 265 266 267 269 272 277 285 290 290 290 290 290 290 291 293 293 294 296 296 295 292 293 295 296 297 297 297 297 297 296 295 294 294 295 295 294 294 295 295 295 294 295 295 295 295 295 295 297 296
258 259 259 260 260 261 262 262 263 263 264 265 266 266 266 266 267 266 266 266 265 265 264 264 264 265 266 267 268 270 275 280 287 289 290 290 290 290 291 291 293 293 294 294 292 292 294 295 296 297 297 297 297 297 295 294 294 293 294 293 292 293 295 294 294 294 296 297 295 293 294 293 289 291
Wind_Speed
16 17 19 18 18 17 16 15 15 17 17 18 17 16 16 16 17 16 19 20 18 17 16 15 14 17 20 19 16 18 19 20 19 18 18 19 19 22 22 23 25 26 29 30 31 35 33 28 27 28 31 35 33 37 45 42 41 42 41 39 39 36 35 36 37 35 35 34 32 33 32 31 31 32
16 17 18 17 17 17 16 17 18 18 18 17 17 17 16 16 18 16 19 19 15 16 15 14 14 14 13 14 13 14 17 19 16 15 19 19 19 22 21 20 22 25 28 31 30 32 34 30 30 30 31 34 32 34 37 47 52 47 44 42 41 39 36 36 37 36 34 34 33 32 31 30 32 31
15 18 20 19 19 17 19 18 18 18 17 16 16 16 16 17 18 18 19 18 13 12 16 15 16 15 16 14 17 19 16 12 14 12 12 17 23 24 19 21 20 23 27 30 32 28 25 31 31 31 30 30 31 29 30 26 30 38 39 38 38 35 34 34 36 36 35 33 32 32 31 31 33 31
16 18 19 20 17 17 17 19 16 16 17 16 16 15 14 13 14 14 15 17 20 13 17 17 18 20 17 17 19 15 15 15 17 15 16 17 20 14 13 18 21 22 25 29 30 33 30 30 30 30 31 32 34 36 35 36 33 29 33 37 37 36 35 34 35 36 35 33 32 32 31 31 33 32
17 18 20 19 20 18 18 19 17 16 18 18 17 18 15 14 14 15 16 17 20 18 18 17 17 16 16 18 17 22 22 20 17 15 15 17 15 14 12 11 15 19 24 27 28 28 28 32 33 33 33 34 37 38 38 36 37 36 33 33 35 34 34 34 34 36 36 34 33 33 32 32 33 32
16 17 19 20 19 20 21 21 21 18 18 18 17 17 14 15 16 15 13 12 14 18 13 15 15 15 14 15 19 20 21 22 17 17 16 14 15 12 11 11 12 18 19 26 27 26 26 29 32 34 34 35 39 42 40 38 38 39 37 34 33 33 32 30 32 36 36 35 33 33 32 33 33 32
17 19 19 21 19 17 20 21 19 19 20 19 19 20 16 15 16 14 15 14 18 21 19 18 19 18 16 16 16 21 20 18 16 13 13 13 11 9 10 11 11 17 20 21 25 26 26 28 30 32 35 31 32 36 41 41 39 38 38 38 37 35 34 32 31 34 37 36 34 33 32 32 33 33
18 19 20 20 19 19 21 21 19 18 18 18 17 19 17 17 19 17 16 18 16 18 20 21 20 20 16 17 18 19 18 18 11 10 11 13 13 10 9 11 12 13 18 19 21 25 25 27 29 32 34 35 35 35 37 40 41 40 39 37 37 38 36 34 32 33 35 35 34 33 32 32 32 32
19 19 20 20 19 19 20 20 18 17 20 18 18 18 17 16 16 16 15 17 19 20 22 20 17 17 16 16 19 20 18 16 16 12 11 11 12 11 10 11 12 16 20 20 21 22 24 26 30 33 34 35 36 35 36 35 35 38 39 37 36 35 34 33 31 32 34 35 34 34 34 33 32 32
18 18 19 18 18 19 19 19 18 18 20 18 18 18 17 17 16 17 17 17 20 21 21 20 19 16 15 17 19 18 16 11 14 10 10 11 11 10 10 10 10 10 10 10 12 17 22 29 28 31 32 35 36 36 37 37 35 35 37 37 38 36 35 34 32 31 32 33 33 33 35 34 33 32
21 20 19 19 19 19 19 20 19 19 19 18 20 18 18 18 17 18 18 19 21 21 19 17 17 17 17 18 18 14 12 13 12 9 10 11 9 8 9 11 10 9 10 14 18 16 18 23 23 25 30 35 36 37 38 38 38 36 36 36 36 37 36 35 34 32 32 32 31 31 32 33 33 32
20 21 20 20 20 19 19 19 19 19 18 16 18 17 16 17 18 18 17 17 17 18 18 17 17 15 17 13 11 10 10 6 5 6 8 13 11 7 7 9 9 8 9 10 11 16 21 21 25 26 29 33 35 36 35 37 37 38 36 34 35 35 36 36 35 34 33 32 32 31 31 31 32 32
18 20 20 20 21 22 25 30 27 25 22 16 16 17 17 18 17 17 16 16 16 16 16 18 17 15 16 12 9 9 9 7 3 3 4 9 10 9 9 10 8 8 10 10 12 12 14 15 16 17 18 23 32 34 37 34 38 38 37 36 36 34 35 35 35 34 34 33 33 32 31 31 31 32
21 20 19 20 29 30 31 31 32 32 32 32 25 20 17 17 17 16 16 16 16 16 16 16 15 15 15 12 10 8 4 3 2 3 5 7 9 10 10 10 6 5 9 12 12 13 13 15 15 17 18 19 29 23 27 27 31 36 39 38 37 36 35 35 35 35 34 34 34 33 32 32 32 31
20 20 20 20 23 26 29 28 32 31 32 32 33 34 34 29 22 18 17 18 17 17 17 16 16 16 17 17 12 9 8 5 5 4 4 5 8 10 12 12 8 2 7 12 12 12 13 16 15 16 18 18 19 22 22 34 39 40 39 40 39 38 38 36 36 36 35 34 34 34 33 32 32 31
19 21 21 19 17 18 20 20 22 26 31 32 32 33 33 33 34 33 26 20 18 18 18 18 18 17 16 15 15 11 9 8 6 4 4 4 5 8 10 10 11 7 11 14 12 11 12 16 17 16 19 18 19 22 29 37 39 40 40 40 41 40 40 38 37 37 36 35 33 33 32 31 31 31
20 19 19 19 17 16 27 23 21 20 20 26 31 31 31 31 32 32 33 33 26 20 20 20 21 19 16 17 15 13 11 7 8 6 6 5 5 5 8 8 11 14 10 13 15 12 11 16 18 18 19 18 20 24 32 39 40 41 41 40 41 40 39 39 38 37 37 35 34 33 32 31 30 30
19 20 20 19 19 18 19 18 19 19 22 19 20 20 20 20 24 29 33 34 35 31 24 21 22 22 20 19 16 15 10 7 9 7 6 5 7 8 9 10 12 13 9 8 11 13 10 15 17 19 19 19 21 22 32 41 41 40 39 37 38 40 40 39 39 38 37 36 34 33 32 31 31 31
20 20 19 20 21 20 19 18 21 18 17 17 16 18 19 21 21 22 21 21 20 19 19 20 22 23 23 22 20 18 17 12 10 7 5 5 7 8 9 10 10 11 8 8 6 12 10 14 18 18 18 19 20 20 32 41 42 42 41 39 37 37 39 38 38 38 37 36 35 34 32 32 32 31
20 20 20 20 21 21 21 24 29 26 20 18 18 18 17 19 19 21 22 28 27 24 20 19 18 17 21 24 21 20 18 15 11 7 4 4 5 6 8 11 10 10 7 5 7 11 13 14 18 16 16 19 20 20 22 38 42 41 41 40 39 37 37 37 36 37 37 36 35 34 33 32 31 31
20 20 19 20 19 20 20 25 30 30 28 19 20 19 19 16 16 16 17 27 33 33 34 35 36 37 37 36 34 34 35 23 12 9 7 8 6 6 8 11 10 11 9 9 8 12 13 13 16 15 16 19 18 19 20 24 35 38 38 37 37 36 35 35 35 35 36 36 35 34 33 32 31 32
18 20 31 27 22 22 22 27 30 31 25 20 20 19 20 20 19 19 18 16 20 27 30 31 33 35 35 35 37 36 35 31 19 11 12 6 4 6 6 10 9 11 10 10 8 13 12 8 14 16 13 15 17 19 19 22 26 34 31 35 35 34 33 33 34 33 34 34 34 33 33 32 31 25
18 20 21 28 26 24 25 32 31 32 26 20 18 17 18 19 18 18 19 17 17 16 16 17 19 20 25 22 22 23 29 28 21 13 10 5 6 8 8 8 8 10 12 6 4 12 12 9 13 19 16 14 10 15 17 19 19 19 18 22 25 30 30 30 30 31 31 31 32 33 33 31 29 18
17 17 20 22 27 30 31 30 31 30 30 21 19 18 17 18 20 14 16 16 15 15 16 16 16 16 15 12 12 13 15 15 13 12 10 9 9 9 9 8 9 10 10 8 8 13 10 5 8 12 20 18 14 13 15 15 16 16 17 18 16 24 26 27 25 30 30 30 32 30 33 33 30 18
20 20 18 17 24 29 30 30 31 32 31 29 21 19 19 18 18 20 15 18 25 17 16 17 16 15 14 12 11 12 11 10 9 9 10 9 10 9 9 9 10 12 13 12 14 11 12 8 7 9 13 13 16 19 16 16 15 15 16 18 17 16 16 17 15 19 25 31 31 33 32 33 33 23
19 20 20 18 23 30 31 31 31 33 32 33 22 21 28 32 32 24 18 15 15 15 14 14 15 15 14 12 10 10 10 10 9 9 10 10 10 11 11 11 10 10 13 11 12 11 15 11 9 9 10 12 13 15 16 15 15 16 16 16 17 17 16 16 16 18 19 20 22 25 28 34 32 30
21 20 20 20 28 31 32 33 34 34 34 29 23 31 31 31 33 28 18 15 14 15 15 15 15 14 13 13 11 10 10 10 10 10 11 11 11 11 13 14 14 15 15 13 12 12 15 12 10 12 12 14 18 15 17 16 14 13 15 14 15 15 13 13 16 16 16 17 14 27 30 32 31 29
20 20 20 22 35 35 34 34 34 34 33 26 31 31 32 31 30 20 17 16 15 15 15 15 15 14 12 11 11 11 9 8 9 11 11 12 13 13 13 14 14 15 16 15 14 14 14 15 14 13 14 17 20 21 18 14 18 19 19 16 14 15 15 14 13 13 13 14 16 18 17 19 21 22
19 25 33 34 32 31 30 32 31 27 26 29 28 29 29 27 16 16 16 16 14 15 15 15 15 14 13 12 12 12 10 8 9 9 10 10 12 12 12 12 12 12 13 13 13 13 14 16 16 17 12 13 20 21 22 20 18 18 20 20 17 16 16 16 15 15 15 15 15 17 18 18 17 17
29 28 29 30 28 25 23 19 17 15 15 20 23 26 26 16 15 15 15 15 15 16 16 15 15 13 11 10 9 10 9 10 11 10 10 9 10 10 11 11 12 13 15 15 15 14 15 16 18 19 17 15 16 19 18 18 18 19 20 21 19 16 17 18 17 15 16 16 17 17 16 16 17 16
16 19 20 19 23 20 25 23 21 20 19 15 14 12 11 11 13 14 15 14 15 16 15 14 13 11 10 8 10 10 10 11 11 9 10 10 10 10 10 10 13 13 13 13 14 14 15 16 17 21 20 17 14 16 18 19 20 20 19 18 18 19 17 16 17 16 17 16 15 14 13 13 14 15
16 16 17 18 14 14 13 14 12 12 12 12 12 11 11 11 12 17 22 23 13 13 13 13 12 11 10 11 11 12 12 11 11 10 10 10 9 10 9 10 13 13 12 11 12 13 15 16 16 20 22 20 19 16 14 16 19 20 20 20 19 15 16 22 21 19 18 17 16 15 15 14 15 14
14 13 14 14 14 14 15 14 13 13 13 13 12 13 12 11 12 12 13 11 12 12 12 14 13 13 10 12 10 11 12 11 11 10 10 10 10 10 11 13 13 12 12 11 10 11 11 14 16 22 22 20 21 22 20 18 16 17 20 18 18 14 13 14 16 17 16 17 16 16 16 15 15 16
12 13 13 13 14 14 14 14 14 14 14 14 14 13 14 12 10 12 12 12 14 12 11 12 11 11 11 13 13 13 13 11 10 10 11 9 10 10 12 14 13 12 12 11 10 11 11 10 7 7 6 5 6 14 20 24 19 19 18 19 19 18 16 16 15 18 20 20 20 18 16 15 15 14
12 13 13 14 14 14 13 13 14 14 14 14 14 14 13 11 11 11 10 11 11 12 12 13 13 12 13 15 15 14 12 11 10 10 10 11 11 12 14 13 12 12 12 11 12 11 10 11 12 12 12 12 11 1 12 1 21 19 17 17 17 17 16 15 15 16 18 16 16 17 14 13 14 14
12 12 13 14 14 14 14 14 14 14 13 13 13 14 14 13 12 12 11 12 11 11 11 12 12 12 12 14 13 11 11 11 11 11 10 11 12 13 13 14 13 12 12 12 12 12 11 13 15 16 17 15 15 14 14 10 0 19 21 16 13 12 13 14 15 15 16 16 17 18 18 17 16 16
13 13 12 13 14 14 14 15 14 14 14 14 14 13 13 14 15 13 14 15 12 10 10 11 12 12 13 12 12 13 13 13 12 11 11 12 12 12 13 13 13 12 12 12 12 14 13 14 16 18 18 16 16 18 14 2 7 15 20 23 18 15 15 14 14 15 15 16 17 17 18 17 16 14
12 13 13 13 14 14 14 14 14 14 14 14 14 14 13 14 14 14 14 12 12 11 11 10 11 12 12 13 12 13 12 11 11 11 12 12 11 12 13 13 12 12 12 11 13 15 15 15 17 18 19 19 19 18 14 5 9 13 15 17 21 18 15 14 16 18 18 16 17 16 14 15 15 15
12 13 13 14 14 14 14 15 14 14 14 14 14 14 15 14 14 14 14 13 13 11 11 11 11 12 13 14 13 12 12 13 13 12 12 11 11 12 12 12 12 12 12 12 12 14 15 17 17 18 19 20 21 20 19 19 19 18 16 18 17 19 19 20 19 17 16 15 13 10 5 5 10 14
13 12 12 12 13 13 13 14 14 14 14 14 14 14 14 15 16 15 14 13 13 13 12 11 12 13 13 13 14 13 12 14 13 12 11 10 10 12 12 13 12 12 12 13 13 13 15 16 18 18 19 20 18 14 13 8 7 8 10 10 19 22 21 21 21 20 17 15 13 14 13 13 13 12
13 13 13 13 13 13 14 14 14 14 14 14 14 15 15 15 15 13 12 14 14 13 12 11 11 12 12 13 14 14 13 10 11 11 10 9 9 10 13 13 12 12 12 14 15 15 17 18 21 27 20 11 15 17 14 13 13 13 13 8 6 16 17 16 17 19 18 16 16 16 15 15 14 13
12 13 13 13 13 13 13 13 14 14 14 14 14 14 14 14 12 20 17 15 13 13 12 12 11 11 12 12 13 14 14 10 10 9 8 8 8 7 13 12 12 12 13 14 17 18 17 13 13 11 13 16 16 17 17 18 17 17 16 13 7 11 17 16 14 16 16 17 17 15 12 10 11 12
12 12 12 14 14 13 13 14 14 14 14 14 14 15 14 13 13 15 13 14 12 12 12 13 12 12 12 12 13 13 13 11 8 7 7 7 7 5 8 11 12 15 15 14 14 14 9 9 12 15 16 16 16 17 19 20 18 17 15 13 11 10 12 17 17 17 18 21 22 20 20 20 18 19
12 12 13 13 14 14 14 14 15 15 14 13 14 14 13 12 11 13 13 13 14 14 13 12 12 12 12 12 13 13 12 10 6 6 6 6 5 4 6 10 13 13 14 12 10 8 10 12 14 16 16 15 15 17 18 17 15 14 16 17 12 12 13 10 10 14 16 20 21 17 16 17 16 13
12 12 13 14 13 13 13 14 14 15 15 16 17 16 15 14 16 18 17 16 14 13 12 12 12 12 12 12 12 12 11 13 9 5 4 4 5 4 4 5 10 12 11 10 12 12 13 14 13 13 15 16 16 18 17 17 17 16 15 15 16 15 14 14 14 14 15 15 19 18 10 9 15 15
Wind_Direction
257 256 254 253 255 254 254 253 251 251 254 258 260 255 254 255 261 267 268 265 269 268 262 266 259 257 260 259 255 255 256 256 253 255 255 254 252 250 238 231 236 242 248 244 236 221 211 200 197 199 200 205 203 199 180 178 179 178 179 178 179 183 185 180 175 175 177 178 180 181 182 182 177 180
256 256 255 252 253 254 252 252 251 251 254 256 252 252 253 253 256 261 265 269 261 273 270 270 277 274 281 281 265 257 257 264 279 280 273 265 259 253 247 243 240 239 239 238 231 224 207 194 192 195 198 202 201 201 203 186 177 177 176 176 176 182 183 180 173 172 175 178 179 179 181 179 176 180
259 258 256 253 253 254 254 252 254 254 252 250 250 250 250 249 250 257 261 268 257 258 272 271 271 276 272 263 266 267 264 250 252 264 272 274 268 254 250 246 244 243 239 236 229 220 207 189 189 192 194 193 189 181 177 183 184 174 173 175 177 179 181 179 173 170 174 176 178 178 180 177 178 180
261 260 257 254 251 254 256 257 255 255 251 249 249 249 252 255 255 261 266 266 274 264 275 278 277 274 273 278 282 282 275 266 256 258 268 267 269 269 259 249 246 246 241 234 230 219 201 193 188 187 189 188 183 177 175 171 174 182 177 176 177 179 179 179 173 169 172 175 177 178 179 177 178 180
264 263 258 255 257 257 259 260 258 257 258 256 255 254 254 260 263 265 268 272 273 270 261 268 272 277 279 270 260 266 266 264 264 259 257 259 263 259 256 262 263 253 245 238 229 221 203 193 188 188 189 187 180 176 174 174 173 175 181 181 178 178 179 179 174 169 170 174 177 178 178 177 178 179
269 264 263 262 263 263 258 258 260 259 258 257 255 252 253 254 255 256 271 283 287 289 293 284 285 284 278 275 270 262 261 263 258 259 259 258 255 253 258 256 257 264 257 240 232 226 206 198 189 188 191 189 184 174 173 175 176 174 176 178 177 178 177 182 178 170 169 173 176 178 178 177 178 179
274 270 268 270 270 265 263 260 259 259 259 257 257 257 251 253 258 262 263 273 279 281 281 281 280 277 277 270 270 265 260 260 263 266 273 262 252 248 253 255 254 253 257 252 237 225 218 207 195 188 187 191 188 181 174 175 176 177 176 175 174 176 177 180 182 173 169 172 176 178 177 176 177 178
275 272 273 273 271 267 265 263 263 262 260 258 255 253 254 257 264 271 279 279 277 279 279 271 266 269 272 272 270 270 272 268 259 251 257 269 266 257 250 249 251 252 254 253 247 235 220 212 200 194 186 185 186 182 181 179 176 175 175 175 174 173 175 177 180 176 170 171 175 177 177 175 176 177
273 272 271 272 272 269 267 266 263 263 260 258 258 258 256 254 256 260 259 262 264 263 258 262 265 267 267 268 269 262 262 265 260 248 250 259 263 258 251 248 247 249 252 254 249 243 226 217 208 194 189 185 184 180 180 180 181 176 172 171 173 174 172 174 177 178 172 171 174 177 176 176 175 176
262 263 264 267 267 268 267 266 265 264 265 264 260 256 254 254 256 258 259 261 263 262 261 261 265 266 269 268 259 252 247 245 259 266 263 258 249 254 260 252 246 238 238 241 244 240 232 217 216 198 188 184 183 180 178 178 178 178 173 171 171 172 172 172 174 178 175 172 173 174 175 176 175 175
258 255 254 254 255 258 259 260 262 263 262 260 260 261 261 259 257 257 259 260 262 264 270 271 268 269 265 261 258 242 236 237 248 270 282 271 256 236 246 256 251 245 245 243 239 233 227 221 211 202 190 183 182 179 176 176 176 174 174 171 171 170 171 169 170 175 175 174 174 173 173 174 175 175
256 252 248 249 249 249 254 255 256 256 259 258 258 256 256 257 256 256 258 262 264 265 263 261 264 264 266 261 248 245 236 237 259 256 278 275 270 257 245 250 263 256 246 249 245 226 219 219 210 200 193 186 180 176 174 174 173 171 170 171 170 171 170 168 169 173 174 174 176 175 173 173 174 175
265 262 255 251 248 244 249 254 253 253 252 252 254 254 253 255 255 256 259 261 265 271 276 273 270 273 275 263 258 254 256 251 259 344 309 293 293 286 279 266 253 263 271 259 238 224 208 208 208 198 198 189 182 176 174 174 172 170 169 170 170 171 170 168 168 172 172 172 175 176 175 174 174 175
279 277 274 267 256 246 246 251 255 256 257 256 254 255 251 249 251 250 253 259 261 267 274 278 282 282 280 286 281 271 275 331 327 336 338 317 312 303 283 275 247 236 255 252 237 224 207 203 201 197 194 194 182 180 174 172 172 171 169 170 170 169 170 170 170 172 171 172 173 174 175 174 174 175
284 281 277 275 275 267 255 252 255 258 258 258 258 257 257 256 253 254 251 251 255 259 262 270 277 277 280 282 279 279 287 302 317 318 346 327 322 312 309 306 307 213 241 248 233 221 206 201 202 195 193 187 188 174 177 171 170 171 170 169 170 170 170 171 172 172 172 173 173 173 173 174 174 174
282 282 280 276 273 270 266 256 253 250 252 255 258 261 261 260 259 256 254 257 256 254 258 260 260 267 268 276 284 285 286 286 292 307 329 323 310 308 307 305 297 314 327 293 256 228 203 198 201 197 193 183 182 179 173 173 172 171 172 171 171 171 170 171 173 171 171 173 173 172 172 172 173 173
285 283 281 281 275 272 272 265 265 261 254 252 252 258 258 259 259 258 257 254 256 261 261 261 262 260 265 269 274 284 281 291 291 313 309 308 295 274 287 287 301 302 313 309 288 251 209 193 197 196 191 183 181 179 173 173 172 173 173 174 172 171 170 171 172 171 170 172 172 172 171 171 171 173
282 280 280 279 277 275 274 270 264 262 258 256 260 258 261 260 260 260 259 261 261 260 261 261 260 262 263 262 266 276 290 299 293 298 298 302 294 289 279 284 279 282 289 275 288 279 222 193 193 195 189 181 180 182 174 172 172 172 172 174 173 170 170 171 171 170 170 170 171 172 171 171 171 173
281 281 281 281 281 281 279 276 275 268 259 253 252 250 252 252 253 254 255 258 258 257 257 260 258 257 258 260 258 264 270 273 279 280 266 267 271 280 283 276 259 270 254 261 276 279 248 194 191 193 181 177 177 179 175 174 172 171 171 172 174 171 170 170 171 169 169 169 170 171 171 171 172 173
281 279 277 277 276 275 274 273 274 275 274 268 259 253 248 245 243 246 248 257 258 257 257 260 265 268 263 254 251 255 259 267 271 271 242 244 261 273 284 286 299 290 294 279 280 273 255 200 186 182 175 169 170 171 173 173 172 171 170 170 171 172 170 169 170 168 168 168 169 170 170 170 171 172
285 281 278 277 278 278 276 275 274 274 273 270 266 259 256 248 248 249 252 259 262 261 260 260 260 260 261 259 252 248 250 253 252 258 255 258 271 284 293 294 300 297 316 309 309 274 254 208 173 165 166 165 160 162 167 169 168 167 168 168 170 171 170 169 168 168 168 168 169 170 170 170 170 170
281 279 279 276 276 277 276 277 276 275 274 272 272 270 265 263 260 256 256 260 263 262 263 261 261 262 262 259 251 245 244 245 242 242 250 255 267 266 272 285 295 301 296 285 300 284 254 210 158 150 147 148 159 158 159 163 164 163 165 167 170 172 171 169 168 169 169 168 169 169 170 170 167 168
287 283 283 280 276 275 275 276 275 272 269 265 264 266 270 269 260 258 259 255 259 260 260 257 254 253 252 250 242 239 240 242 242 240 243 226 239 264 264 269 297 303 285 282 307 274 255 209 170 144 144 148 149 152 152 156 159 160 162 168 172 174 170 168 168 169 168 168 169 170 170 169 166 167
290 292 293 289 285 282 279 279 278 277 276 276 277 278 276 274 274 274 262 253 252 257 261 268 275 274 271 260 246 234 235 233 229 231 224 218 223 235 251 256 257 256 267 299 307 286 272 232 186 170 146 144 151 154 149 151 156 157 159 164 173 171 167 167 168 170 169 170 169 170 169 169 167 167
301 300 296 295 292 288 286 284 282 279 275 271 270 268 269 268 272 274 268 263 257 253 256 261 264 267 265 258 249 244 234 226 221 222 219 211 211 220 234 246 249 251 259 264 275 284 276 236 198 156 145 141 140 147 157 153 157 159 166 167 167 169 166 170 169 170 172 170 171 171 170 170 170 169
298 297 299 297 293 290 288 286 285 282 279 276 273 270 269 272 274 275 274 270 260 252 251 251 254 257 258 257 248 234 231 228 220 215 217 214 217 220 223 229 243 261 261 260 260 265 268 223 206 162 139 127 139 136 142 156 159 162 166 168 169 168 168 166 169 171 172 172 172 171 169 170 172 169
300 300 298 296 296 295 292 287 282 278 275 275 270 269 269 270 271 273 274 271 263 254 249 249 250 249 251 251 247 241 237 226 220 223 219 220 224 224 232 230 238 250 259 269 265 264 267 239 197 181 157 144 147 150 150 150 161 161 163 170 169 166 167 168 172 173 168 168 168 164 166 170 170 166
300 302 301 302 305 305 303 299 292 285 278 271 269 268 269 270 271 273 272 270 270 264 253 250 248 247 245 241 244 244 240 232 225 227 223 226 228 229 236 237 242 243 251 252 252 254 259 253 200 197 168 159 158 161 165 164 156 164 168 169 173 167 167 173 177 166 169 169 164 168 166 172 171 164
303 306 310 312 312 311 310 308 301 291 285 281 279 278 277 278 275 273 271 268 265 260 254 248 249 248 244 242 246 248 244 237 237 230 232 228 232 236 241 247 247 248 244 244 243 242 246 256 210 191 176 166 165 170 167 166 162 169 165 160 169 174 172 177 178 170 169 168 167 169 175 174 171 167
315 319 318 317 317 317 317 320 319 300 282 279 279 277 276 273 266 263 262 262 259 255 255 250 249 248 240 235 238 240 235 236 233 230 233 233 238 238 244 251 249 244 240 235 236 237 239 247 221 186 177 177 175 167 166 157 165 166 163 170 169 161 176 174 175 172 167 168 171 175 177 173 171 168
328 323 321 320 322 323 324 326 330 337 335 322 309 304 299 292 284 264 253 251 253 259 252 250 247 246 243 238 238 233 231 233 235 230 233 235 240 238 242 247 256 254 239 224 223 225 234 243 224 187 181 178 170 170 163 160 159 161 170 171 162 169 171 172 173 172 169 169 170 170 169 169 173 178
330 324 322 327 327 327 331 334 337 336 331 323 320 315 314 309 309 306 279 252 245 247 251 254 251 247 245 242 239 240 236 238 236 229 227 227 237 236 241 245 249 246 247 224 220 219 226 235 222 195 183 174 170 169 166 165 163 163 166 167 170 175 169 172 172 174 172 163 162 170 173 173 176 184
330 332 335 334 334 338 339 341 339 337 330 326 320 316 318 318 320 317 332 304 254 242 245 249 248 252 247 246 241 240 240 238 236 228 229 226 232 238 233 241 242 239 235 226 216 218 220 225 224 200 184 179 173 162 163 167 171 166 162 166 168 155 159 174 170 164 158 158 168 170 177 180 178 176
338 343 338 338 336 336 340 341 340 334 330 326 325 323 322 322 321 326 324 327 325 307 273 249 246 248 247 252 248 244 243 240 235 229 225 228 226 233 235 239 236 231 227 217 202 202 207 198 108 62 92 121 140 166 169 168 166 170 168 167 164 165 170 165 163 159 165 170 167 171 175 180 179 176
349 342 341 340 338 337 335 336 334 330 326 325 324 322 324 321 322 320 316 319 319 317 316 301 271 243 242 246 246 246 240 238 237 237 229 227 225 230 235 236 232 221 214 201 193 188 186 169 154 140 138 139 133 52 3 7 165 164 163 166 170 165 161 161 155 160 163 166 164 168 173 172 177 179
351 345 342 339 338 335 332 330 328 327 326 324 323 322 322 324 325 321 315 313 311 307 300 296 298 280 255 244 246 242 241 237 239 235 231 223 226 229 232 233 227 216 203 196 185 179 178 175 166 159 158 157 157 162 184 347 251 165 157 163 167 157 158 158 158 159 163 162 168 169 172 176 181 181
353 346 338 336 334 335 332 325 324 325 326 324 323 320 319 319 320 315 310 311 305 298 295 296 293 293 284 261 246 243 239 235 232 231 231 231 231 233 234 230 216 207 197 193 180 174 179 176 170 165 157 156 159 170 169 94 170 191 167 162 160 160 162 158 154 162 171 168 173 178 177 176 179 179
347 344 340 336 333 331 327 324 320 319 321 323 320 317 315 311 310 312 313 312 308 306 304 298 293 290 288 282 262 245 237 231 232 231 233 230 231 234 231 221 205 198 193 187 182 177 178 175 172 168 161 160 164 167 158 132 141 190 203 170 159 157 156 158 165 169 173 178 177 179 170 172 174 177
347 342 342 336 330 326 325 323 321 317 317 319 320 319 314 310 312 314 315 314 311 306 304 301 299 297 295 292 282 259 246 242 238 234 231 227 226 231 221 208 199 192 186 184 183 181 177 176 174 170 168 169 173 170 164 164 179 176 182 185 163 154 163 166 172 172 170 172 171 152 108 79 89 126
342 337 333 330 327 323 320 320 318 317 315 314 313 313 314 314 313 309 310 312 315 311 301 295 295 296 294 292 290 278 253 240 237 236 230 225 229 225 212 198 194 186 184 179 180 186 180 178 177 175 176 180 174 157 146 123 85 114 143 175 179 171 172 172 170 168 170 170 152 149 148 140 145 151
337 334 332 330 323 322 320 318 317 314 311 309 311 311 311 308 308 308 308 314 313 309 304 297 295 294 292 294 293 290 271 241 235 229 226 224 233 228 202 190 187 183 180 178 178 183 189 184 184 180 166 119 98 96 102 114 137 152 169 178 192 185 174 173 168 169 167 156 154 158 154 155 148 152
332 328 324 328 324 318 315 315 315 312 309 308 307 309 303 302 304 319 319 311 309 307 303 301 300 300 298 299 300 298 286 247 226 221 216 217 230 237 196 183 185 179 181 182 181 187 192 182 168 140 112 127 136 147 157 159 163 170 173 169 155 157 158 170 173 169 156 156 155 155 147 128 133 151
328 327 323 325 324 318 319 317 315 313 308 307 309 306 303 306 312 325 327 323 317 318 316 311 306 303 301 301 299 293 293 265 223 215 210 206 214 216 203 184 186 183 185 186 188 177 142 114 126 146 158 160 159 157 168 175 172 165 160 159 160 162 167 166 157 156 158 171 176 170 168 168 163 180
326 324 324 324 322 320 319 321 317 314 307 304 310 312 309 307 313 324 330 329 327 323 317 314 309 305 300 296 294 294 297 288 232 214 204 197 188 204 223 192 182 191 186 176 154 123 135 154 163 168 165 168 166 173 176 167 165 163 165 166 157 155 161 158 149 150 164 184 189 182 174 178 191 197
319 319 321 323 320 319 318 318 320 316 315 322 322 317 318 325 332 333 334 332 328 323 319 314 310 304 298 294 293 297 302 309 293 232 199 182 177 185 222 238 190 181 180 155 138 152 166 163 167 174 174 171 173 179 173 166 165 165 167 155 158 164 164 161 159 166 176 184 196 185 155 140 69 78